Wind_Speed
7 8 8 8 8 9 10 11 10 10 10 10 10 10 10 10 10 10 10 10 11 11 11 11 11 11 11 11 11 11 11 11 11 11 11 11 10 11 11 10 10 10 9
7 8 8 8 8 9 9 10 10 10 10 10 10 11 11 11 11 11 11 11 11 12 12 12 12 11 11 12 12 12 12 12 13 13 14 13 12 11 11 11 11 11 11
8 9 8 8 8 9 9 10 10 10 10 10 10 11 11 11 11 11 11 11 11 12 12 13 13 13 13 13 13 14 14 14 15 15 15 15 14 13 13 12 12 12 13
11 10 9 9 9 9 9 9 10 10 11 11 10 11 12 12 13 12 12 12 13 13 13 14 15 15 15 15 15 15 16 16 16 16 16 16 15 15 14 13 13 14 14
12 11 9 9 9 9 9 9 10 11 11 12 12 11 11 12 13 13 13 13 14 15 15 15 15 16 16 16 17 16 16 17 17 17 17 17 16 15 15 15 15 16 15
12 10 10 10 10 9 10 10 11 12 12 12 13 13 12 13 14 14 14 15 15 16 16 16 16 16 17 17 17 18 18 18 18 19 18 18 17 17 16 16 17 17 17
12 12 10 11 11 10 10 11 12 13 13 14 14 14 14 14 15 15 15 16 16 17 17 17 18 18 18 18 18 19 19 20 19 19 19 19 19 18 18 18 18 18 18
13 13 12 12 12 11 12 13 13 14 15 15 16 15 16 16 16 16 17 17 18 18 18 19 19 19 19 19 20 20 20 20 20 20 20 20 20 19 19 20 20 19 19
13 13 12 12 13 13 14 15 14 15 16 17 17 16 16 17 17 17 18 19 19 19 20 20 21 21 21 21 21 21 21 21 21 21 21 21 20 20 20 20 21 21 21
14 14 13 12 13 14 15 16 16 16 17 17 17 17 17 18 18 18 19 20 20 21 21 21 21 21 22 22 22 22 22 22 21 21 21 21 21 21 21 22 22 22 22
14 15 13 13 14 15 16 16 17 17 17 17 17 18 18 19 20 20 20 21 21 22 22 22 22 22 23 23 23 22 22 23 23 23 23 23 23 23 23 23 23 23 24
15 14 13 14 14 15 16 17 17 17 17 18 18 19 20 20 21 22 22 22 23 23 23 24 24 24 23 23 24 23 23 24 24 24 24 24 24 24 24 24 24 24 25
15 15 15 15 15 16 16 16 17 18 18 19 20 21 21 22 22 23 23 24 25 25 25 25 25 25 24 24 24 24 25 25 25 25 25 25 25 25 25 25 25 26 26
16 16 16 16 16 17 17 17 18 18 20 21 21 22 23 23 24 24 25 26 27 27 27 27 26 26 26 26 26 26 26 27 26 26 25 25 25 25 25 25 25 25 25
17 17 17 17 17 17 18 18 19 19 21 22 23 24 24 25 26 26 26 27 27 27 27 27 26 27 27 27 27 28 27 27 26 25 25 26 25 25 25 25 25 25 25
18 18 18 18 18 19 20 20 20 21 22 23 24 25 25 26 27 27 27 28 28 29 29 29 28 28 28 29 29 29 28 27 25 25 25 25 25 25 26 26 25 25 26
19 19 19 19 20 20 21 21 21 22 23 24 24 25 26 27 27 28 28 29 30 30 30 29 29 30 31 31 30 29 28 27 27 26 25 25 26 26 26 26 26 26 26
20 20 19 20 21 21 21 21 22 23 23 25 26 26 27 27 28 28 29 30 30 30 30 30 31 32 32 31 30 29 29 28 27 26 25 26 26 26 26 26 26 26 26
20 20 20 20 21 21 21 22 23 23 24 26 26 27 27 28 29 29 30 31 31 30 30 31 31 32 31 29 29 28 27 26 26 26 26 27 27 27 27 27 27 27 28
19 20 21 22 21 21 22 22 23 24 25 26 27 27 27 29 29 30 30 30 30 31 31 31 31 31 30 28 27 27 26 26 26 27 28 29 29 28 28 27 28 28 28
21 22 23 23 22 22 22 23 23 25 26 27 28 28 29 30 30 30 30 31 31 31 31 31 30 30 29 28 28 28 27 27 28 28 29 29 29 29 28 28 28 28 29
22 23 23 23 23 23 24 24 26 27 28 29 29 30 30 30 30 30 31 31 31 30 30 30 30 30 29 29 29 29 29 29 29 29 29 29 29 28 28 28 28 29 29
24 24 24 25 25 25 26 27 28 29 29 29 29 30 30 30 30 31 30 30 30 30 30 31 30 30 29 29 29 29 29 29 30 30 30 29 29 28 28 28 28 29 29
26 26 26 26 27 27 27 28 29 30 30 29 30 30 30 30 30 30 30 30 30 30 31 30 30 30 30 30 29 29 30 30 29 29 29 29 29 29 29 29 29 29 29
26 27 27 27 28 27 28 28 29 29 30 30 30 30 30 29 29 29 30 30 30 31 30 30 30 30 29 29 29 29 30 30 30 29 29 29 29 29 29 29 29 28 28
27 27 27 27 27 28 28 29 29 30 30 30 30 31 30 29 30 30 31 30 30 30 30 30 30 30 29 29 29 30 30 30 30 30 30 29 30 29 29 29 28 28 27
Wind_Direction
338 341 348 352 358 6 11 14 14 14 15 15 14 15 14 11 9 8 8 5 3 2 358 353 353 351 349 346 342 339 337 334 331 329 325 321 316 312 310 309 311 312 313
335 334 335 341 346 353 357 2 6 9 10 9 8 6 4 2 0 1 2 359 355 354 352 349 347 345 343 340 336 333 331 330 327 324 321 321 317 313 312 308 307 306 307
332 329 332 335 336 341 348 352 356 357 357 358 0 3 0 359 359 356 356 354 351 350 348 344 343 340 335 333 330 328 328 327 326 323 321 319 316 317 315 311 309 305 304
320 321 326 329 327 332 339 344 344 345 345 344 345 350 351 351 353 353 352 351 348 345 343 340 338 336 333 330 329 325 323 322 321 319 317 315 315 314 312 309 308 308 307
310 310 313 317 320 322 325 332 336 340 342 339 335 338 341 343 344 346 346 345 343 341 339 337 334 333 331 328 326 324 322 319 318 314 313 313 310 309 306 304 303 302 303
296 297 303 306 310 312 313 319 326 330 333 333 332 333 333 334 335 336 337 337 337 337 336 335 332 330 328 326 324 323 320 317 314 311 310 308 306 306 303 301 299 299 298
295 294 296 298 302 303 306 311 318 320 322 323 323 327 328 328 328 327 329 331 333 333 332 331 328 326 325 323 321 319 317 315 313 310 308 306 302 301 300 299 298 297 296
298 295 292 296 296 296 300 305 309 312 314 316 319 322 324 325 325 325 326 327 328 328 327 326 324 322 321 320 319 317 317 316 313 310 308 306 302 298 296 296 296 296 296
295 295 294 292 293 294 297 303 303 307 309 310 314 317 321 322 322 322 322 322 322 322 321 321 320 318 317 316 316 316 314 312 310 308 307 304 301 297 295 294 294 294 295
292 292 291 292 296 297 298 302 303 306 306 307 310 313 315 318 318 318 318 318 318 317 317 318 317 316 314 313 312 312 312 311 308 306 305 302 300 297 294 292 291 291 293
291 291 291 295 297 298 300 301 301 302 304 306 310 311 312 314 315 316 316 315 315 316 315 315 315 313 312 311 310 310 310 309 307 305 303 301 299 297 295 293 290 289 289
290 291 295 298 299 299 300 303 303 303 303 306 308 309 310 311 312 313 312 312 312 314 314 314 314 312 310 310 309 307 307 307 306 304 302 300 299 297 296 294 292 289 289
290 294 296 300 300 299 299 301 304 304 305 307 308 310 309 309 310 309 309 311 311 311 312 312 312 312 311 310 308 306 305 305 304 303 301 299 298 297 296 296 294 292 290
292 294 297 299 300 300 300 299 301 303 305 306 307 309 309 308 308 309 310 310 310 309 310 310 311 311 311 309 306 305 305 304 303 301 300 299 298 298 297 296 295 294 293
291 293 295 296 296 297 298 298 298 301 303 305 306 307 308 309 309 308 309 310 310 310 310 310 309 309 309 308 307 305 305 304 303 301 299 300 300 299 297 296 296 296 295
291 292 293 296 296 298 298 298 299 301 303 304 306 307 308 309 310 310 309 308 308 309 309 309 309 308 308 308 306 306 305 305 303 302 301 300 301 300 299 297 296 295 294
290 292 293 294 297 297 298 298 299 302 304 306 307 308 308 309 309 309 309 309 309 308 308 310 311 310 308 308 306 304 304 303 301 301 300 299 299 298 298 297 295 294 294
288 289 289 292 295 297 298 300 302 303 304 306 307 308 308 308 308 309 308 308 309 309 309 309 309 309 308 307 306 304 303 302 302 301 300 299 298 297 296 295 294 294 293
289 289 292 297 299 300 301 302 302 304 305 306 307 307 307 308 308 309 309 309 309 311 311 311 310 310 309 308 306 305 304 301 301 301 301 301 299 297 294 294 294 293 293
287 295 298 298 298 300 300 302 304 305 307 307 307 306 306 306 307 310 311 311 311 311 311 310 310 310 310 309 308 307 304 302 301 301 301 300 300 297 294 293 293 292 293
288 293 296 296 298 299 300 302 303 305 307 307 307 307 306 307 309 310 311 311 311 310 309 309 308 309 309 307 306 305 303 300 300 301 301 301 301 299 296 294 293 291 291
291 293 294 294 296 298 299 302 303 304 305 307 307 306 306 307 308 308 310 310 310 310 309 309 309 308 308 307 306 304 303 302 303 303 302 301 302 301 298 297 296 295 294
290 291 292 294 294 298 300 302 304 304 304 306 307 307 307 307 307 307 309 310 311 309 309 309 308 308 309 308 307 305 304 303 304 305 304 304 302 300 299 298 298 297 295
288 289 291 293 295 297 299 301 303 304 305 307 309 309 307 307 308 308 309 311 312 311 311 311 310 309 309 310 308 307 305 304 304 305 305 304 303 301 300 300 299 297 295
286 288 289 292 293 295 298 301 302 303 304 306 308 308 308 309 309 310 311 312 312 313 313 312 311 310 310 310 309 308 307 305 304 304 303 302 302 301 300 299 300 299 297
284 287 289 291 291 293 297 299 301 302 304 305 307 307 307 308 309 310 311 313 313 313 313 311 310 310 309 309 308 308 308 307 305 304 303 302 302 301 300 299 299 299 298
Height
5895 5894 5894 5893 5892 5891 5889 5888 5887 5885 5884 5883 5881 5880 5879 5877 5876 5874 5873 5872 5870 5869 5868 5867 5866 5865 5864 5863 5862 5861 5860 5858 5857 5856 5855 5854 5853 5852 5851 5851 5850 5849 5848
5895 5894 5894 5893 5892 5891 5890 5889 5888 5886 5885 5883 5882 5880 5879 5878 5876 5874 5873 5872 5870 5869 5868 5867 5865 5864 5863 5862 5861 5860 5859 5857 5856 5855 5854 5853 5852 5850 5850 5848 5848 5847 5846
5895 5894 5893 5893 5892 5891 5890 5889 5888 5887 5885 5884 5883 5881 5880 5878 5877 5875 5873 5872 5870 5869 5868 5866 5865 5863 5862 5861 5860 5858 5857 5856 5854 5853 5852 5851 5849 5848 5847 5846 5845 5844 5843
5894 5894 5893 5892 5892 5891 5890 5889 5888 5887 5885 5884 5883 5881 5880 5878 5877 5875 5873 5872 5870 5868 5867 5865 5863 5862 5861 5859 5858 5857 5855 5854 5852 5851 5849 5848 5846 5846 5845 5844 5842 5841 5841
5894 5893 5892 5892 5891 5890 5890 5889 5888 5886 5885 5884 5882 5881 5879 5878 5876 5874 5873 5871 5869 5867 5866 5864 5862 5861 5859 5857 5856 5854 5853 5851 5850 5848 5846 5845 5843 5843 5842 5840 5839 5838 5837
5892 5892 5891 5891 5890 5890 5889 5888 5887 5886 5885 5883 5882 5880 5878 5877 5875 5873 5871 5870 5868 5866 5864 5862 5860 5859 5857 5855 5853 5852 5850 5848 5846 5845 5843 5841 5840 5839 5838 5837 5836 5834 5833
5891 5891 5890 5889 5889 5888 5887 5887 5886 5885 5883 5882 5880 5879 5877 5875 5873 5872 5870 5868 5866 5864 5862 5860 5858 5856 5855 5853 5851 5849 5847 5844 5843 5841 5839 5838 5836 5835 5834 5832 5831 5830 5829
5890 5889 5888 5887 5887 5886 5886 5885 5884 5883 5881 5880 5878 5877 5875 5873 5871 5869 5867 5865 5863 5862 5859 5857 5855 5853 5851 5849 5847 5845 5843 5841 5839 5837 5835 5834 5832 5830 5829 5828 5826 5825 5824
5888 5887 5886 5885 5885 5884 5883 5882 5881 5880 5879 5877 5876 5874 5872 5870 5868 5866 5864 5862 5860 5858 5856 5854 5852 5850 5847 5845 5843 5841 5839 5837 5834 5832 5830 5828 5827 5825 5824 5823 5821 5821 5819
5885 5885 5884 5883 5883 5881 5880 5879 5879 5877 5876 5875 5873 5871 5869 5867 5865 5863 5861 5859 5857 5855 5853 5851 5848 5846 5843 5841 5839 5837 5834 5832 5830 5827 5825 5823 5821 5820 5818 5817 5816 5814 5813
5883 5882 5882 5881 5880 5879 5878 5877 5875 5874 5873 5872 5870 5868 5866 5864 5862 5860 5858 5856 5853 5851 5849 5846 5844 5841 5839 5836 5834 5832 5829 5827 5825 5822 5820 5818 5816 5814 5812 5811 5809 5808 5807
5879 5879 5879 5878 5877 5876 5875 5873 5872 5871 5869 5868 5866 5865 5863 5861 5859 5856 5854 5852 5849 5847 5844 5841 5839 5836 5834 5831 5829 5826 5824 5822 5819 5816 5814 5812 5810 5808 5806 5804 5802 5801 5800
5876 5876 5876 5875 5874 5873 5871 5870 5869 5867 5866 5865 5863 5861 5859 5857 5854 5852 5850 5847 5845 5842 5839 5836 5834 5831 5828 5826 5823 5820 5818 5815 5813 5810 5808 5806 5803 5801 5799 5797 5796 5794 5793
5874 5873 5873 5872 5871 5870 5868 5867 5866 5864 5862 5861 5859 5857 5854 5852 5850 5847 5845 5842 5839 5836 5834 5831 5828 5825 5822 5820 5817 5814 5812 5809 5806 5804 5801 5799 5797 5795 5792 5790 5789 5787 5785
5871 5870 5869 5868 5867 5866 5864 5863 5862 5860 5858 5857 5855 5852 5850 5847 5845 5842 5839 5837 5834 5831 5828 5825 5822 5819 5816 5813 5811 5808 5805 5802 5800 5797 5795 5792 5790 5788 5786 5784 5782 5780 5778
5867 5866 5865 5864 5862 5861 5860 5859 5857 5856 5854 5852 5850 5847 5845 5842 5839 5837 5834 5831 5828 5825 5822 5819 5816 5813 5810 5807 5804 5801 5798 5795 5793 5791 5788 5786 5784 5782 5779 5777 5774 5773 5771
5863 5862 5861 5859 5858 5856 5855 5854 5853 5851 5849 5847 5845 5842 5840 5837 5834 5831 5828 5825 5822 5819 5815 5812 5809 5806 5803 5800 5797 5794 5791 5789 5786 5784 5782 5779 5777 5775 5772 5770 5768 5766 5763
5858 5856 5854 5854 5854 5852 5851 5850 5848 5846 5844 5842 5839 5837 5834 5831 5829 5826 5823 5819 5816 5812 5809 5806 5803 5800 5797 5793 5790 5787 5784 5782 5779 5777 5774 5772 5770 5767 5765 5763 5761 5759 5757
5854 5852 5851 5850 5849 5848 5846 5845 5843 5841 5839 5836 5833 5831 5828 5826 5823 5819 5816 5813 5809 5806 5803 5799 5796 5792 5789 5786 5783 5780 5777 5775 5773 5770 5767 5765 5762 5760 5758 5755 5753 5751 5749
5849 5848 5846 5845 5845 5843 5841 5840 5838 5836 5833 5831 5828 5825 5822 5820 5816 5813 5810 5806 5803 5799 5796 5793 5789 5786 5782 5779 5776 5773 5770 5768 5766 5763 5760 5758 5755 5752 5749 5747 5745 5743 5741
5844 5843 5842 5841 5840 5838 5836 5834 5832 5830 5828 5825 5822 5819 5816 5813 5810 5807 5803 5800 5796 5793 5789 5786 5782 5779 5775 5772 5769 5766 5764 5761 5759 5756 5753 5750 5747 5744 5741 5739 5737 5734 5732
5839 5838 5837 5836 5834 5832 5831 5829 5827 5825 5822 5819 5816 5813 5810 5807 5804 5800 5797 5793 5789 5786 5782 5779 5775 5772 5768 5765 5762 5759 5756 5753 5751 5748 5745 5742 5740 5737 5734 5731 5729 5726 5724
5834 5833 5832 5830 5829 5826 5825 5823 5821 5818 5816 5813 5810 5806 5803 5800 5797 5794 5790 5786 5782 5779 5775 5772 5768 5765 5762 5759 5755 5752 5749 5746 5743 5740 5737 5734 5731 5729 5726 5723 5720 5718 5715
5828 5827 5826 5825 5823 5821 5819 5817 5815 5812 5809 5806 5803 5800 5797 5793 5790 5786 5783 5779 5775 5771 5768 5765 5761 5758 5755 5751 5748 5745 5742 5739 5735 5732 5729 5726 5723 5720 5717 5715 5712 5709 5707
5823 5821 5820 5818 5817 5815 5812 5810 5808 5805 5802 5799 5796 5793 5790 5786 5783 5779 5776 5772 5768 5764 5761 5757 5754 5750 5747 5744 5740 5737 5734 5731 5728 5725 5721 5718 5715 5712 5709 5707 5704 5701 5698
5816 5815 5813 5812 5809 5807 5805 5803 5801 5798 5795 5793 5790 5786 5783 5779 5776 5773 5769 5765 5762 5758 5754 5750 5747 5743 5740 5736 5733 5729 5726 5722 5719 5716 5713 5710 5707 5704 5701 5698 5696 5693 5690